MIDAS 4 DEB, 45468

Orbit data source: Space-Track

MIDAS 4 DEB, 45468 is space debris in LEO originally from a launch on Sat, 21 Oct 1961 UTC launched from the Air Force Western Test Range (AFWTR). Debris objects in space refer to the collection of defunct objects orbiting the Earth. Examples of debris include non-operational satellites, rocket bodies, and fragments generated from explosions, collisions, or faulty payload assembly.

Loading next visibility...
MIDAS 4 DEB details
Identifier
45468, 1961-028N
Orbit
LEO
Last TLE update8 months ago
Origin
Flag of USUSAF SSD (US)
ManufacturerUnknown
MissionSpacecraft
Bus & MotorUnknown
MassUnknown
Launch date (UTC)
1961-10-21 (63 years ago)
Launch vehicleUnknown
Launch site
Air Force Western Test Range (AFWTR)
Object type
Payload
Rocket body
Debris
Shape & HBRUnknown
Radar Cross SectionMedium (>0.1 m² and <1 m²)

Expand to show TLE details & history

TLE from 8 months ago
0 MIDAS 4 DEB
1 45468U 61028N   24098.87203370 -.00000027  00000-0 -96046-2 0  9995
2 45468  95.8584  65.0254 0312667 299.3140  57.6812  8.68912154234904
Epoch: 2024-04-07T20:55Z
Definitive object data (Epoch: 2024-04-07T20:55:43.711Z)
Latitude-0.0001°
Longitude-85.52666°
Altitude3,458.369 km
Speed6.417 km/s
True Right ascension04h 20m 06s
True Declination0° 00' 00"
Sunlit
Object was in daylight at TLE epoch
Visualization TLE readout
Latitude-15.6671°
Longitude-29.41698°
Altitude3,467.175 km
Speed6.412 km/s
Apparent Right ascension06h 02m 03s
Apparent Declination-42° 28' 36"
Sunlit
Object is in daylight
Visualization observer readout
Local Sidereal Time11:23:27
Azimuth230.601° WSW
Elevation-19.786°
Doppler factor1
Orbital elements
Apogee altitude3,926.427 km
Perigee altitude3,301.585 km
Semi-major axis9,992.143 km
Eccentricity0.0312667
Inclination95.8584°
RAAN65.0254°
Arg. of periapsis299.314°
True anomaly60.77212°
Mean anomaly57.6812°
Eccentric anomaly59.22031°
Mean motion2.17298 °/min
BSTAR-0.0096046
Orbital period165.67 mins
Loading maneuver chart data...
Loading historical data...
Loading historical data...
Loading historical data...
Loading historical data...
Loading historical data...
Loading historical data...
Loading historical data...

MIDAS 4 DEB Visibility forecast

Observer location: undefined°, undefined

Span
Click to sort rows by Start time (UTC) header in descending order
Start Az.
Max El. time (UTC)
Max El. Az.
Max El.
End time (UTC)
End Az.
30 mins2024-12-21 18:47:40.444Z23.651° NE2024-12-21 19:02:40.444Z84.024° E27.805°2024-12-21 19:17:40.444Z139.658° SSE
35 mins2024-12-21 21:30:40.444Z6.16° NNE2024-12-21 21:46:40.444Z289.396° WNW43.785°2024-12-21 22:05:40.444Z207.021° SW
19 mins2024-12-22 00:16:40.444Z349.369° N2024-12-22 00:25:40.444Z314.809° NW18.869°2024-12-22 00:35:40.444Z279.511° WNW
18 mins2024-12-22 05:19:40.444Z77.499° E2024-12-22 05:28:40.444Z41.641° NE18.459°2024-12-22 05:37:40.444Z6.941° NNE
32 mins2024-12-22 07:51:40.444Z154.54° SSE2024-12-22 08:06:40.444Z83.863° E44.007°2024-12-22 08:23:40.444Z353.087° N
26 mins2024-12-22 10:39:40.444Z228.046° WSW2024-12-22 10:51:40.444Z278.061° WNW25.154°2024-12-22 11:05:40.444Z336.058° NNW
|